Time,TemperatureF,DewpointF,PressureIn,WindDirection,WindDirectionDegrees,WindSpeedMPH,WindSpeedGustMPH,Humidity,HourlyPrecipIn,Conditions,Clouds,dailyrainin,SoftwareType,DateUTC
2013-06-13 00:01:00,73.1,71.0,29.97,South,182,0.0,0.0,94,0.00,,,0.00,weatherlink.com 1.10,2013-06-13 05:01:00,
2013-06-13 00:16:00,72.9,71.0,29.98,South,182,0.0,0.0,94,0.00,,,0.00,weatherlink.com 1.10,2013-06-13 05:16:00,
2013-06-13 00:31:00,72.4,71.0,29.98,South,182,0.0,0.0,94,0.00,,,0.00,weatherlink.com 1.10,2013-06-13 05:31:00,
2013-06-13 00:46:00,72.5,71.0,29.97,South,182,0.0,0.0,94,0.00,,,0.00,weatherlink.com 1.10,2013-06-13 05:46:00,
2013-06-13 01:01:00,73.0,71.0,29.97,South,183,0.0,0.0,94,0.00,,,0.00,weatherlink.com 1.10,2013-06-13 06:01:00,
2013-06-13 01:16:00,73.2,71.0,29.97,South,182,0.0,1.0,93,0.00,,,0.00,weatherlink.com 1.10,2013-06-13 06:16:00,
2013-06-13 01:31:00,73.4,71.0,29.96,South,188,1.0,3.0,93,0.00,,,0.00,weatherlink.com 1.10,2013-06-13 06:31:00,
2013-06-13 01:46:00,73.8,71.0,29.96,South,188,0.0,1.0,92,0.00,,,0.00,weatherlink.com 1.10,2013-06-13 06:46:00,
2013-06-13 02:01:00,74.0,71.0,29.96,South,188,0.0,3.0,91,0.00,,,0.00,weatherlink.com 1.10,2013-06-13 07:01:00,
2013-06-13 02:16:00,74.0,71.0,29.96,SSW,205,0.0,2.0,91,0.00,,,0.00,weatherlink.com 1.10,2013-06-13 07:16:00,
2013-06-13 02:31:00,74.0,71.0,29.96,South,189,0.0,3.0,90,0.00,,,0.00,weatherlink.com 1.10,2013-06-13 07:31:00,
2013-06-13 02:46:00,73.9,71.0,29.96,South,189,1.0,1.0,90,0.00,,,0.00,weatherlink.com 1.10,2013-06-13 07:46:00,
2013-06-13 03:01:00,73.8,71.0,29.96,South,189,3.0,3.0,90,0.00,,,0.00,weatherlink.com 1.10,2013-06-13 08:01:00,
2013-06-13 03:16:00,73.9,71.0,29.96,South,184,0.0,4.0,90,0.00,,,0.00,weatherlink.com 1.10,2013-06-13 08:16:00,
2013-06-13 03:31:00,73.5,71.0,29.96,South,188,1.0,2.0,91,0.00,,,0.00,weatherlink.com 1.10,2013-06-13 08:31:00,
2013-06-13 03:46:00,73.3,71.0,29.96,South,186,1.0,2.0,91,0.00,,,0.00,weatherlink.com 1.10,2013-06-13 08:46:00,
2013-06-13 04:01:00,73.5,71.0,29.96,SSW,197,2.0,4.0,91,0.00,,,0.00,weatherlink.com 1.10,2013-06-13 09:01:00,
2013-06-13 04:16:00,73.7,71.0,29.96,SSW,198,3.0,4.0,91,0.00,,,0.00,weatherlink.com 1.10,2013-06-13 09:16:00,
2013-06-13 04:31:00,73.8,71.0,29.96,SSW,202,2.0,4.0,91,0.00,,,0.00,weatherlink.com 1.10,2013-06-13 09:31:00,
2013-06-13 04:46:00,74.8,71.0,29.96,SW,216,3.0,6.0,89,0.00,,,0.00,weatherlink.com 1.10,2013-06-13 09:46:00,
2013-06-13 05:01:00,75.3,72.0,29.97,SW,217,3.0,7.0,88,0.00,,,0.00,weatherlink.com 1.10,2013-06-13 10:01:00,
2013-06-13 05:16:00,75.3,72.0,29.97,SW,232,3.0,8.0,88,0.00,,,0.00,weatherlink.com 1.10,2013-06-13 10:16:00,
2013-06-13 05:31:00,75.0,71.0,29.97,SW,225,3.0,8.0,88,0.00,,,0.00,weatherlink.com 1.10,2013-06-13 10:31:00,
2013-06-13 05:46:00,75.0,71.0,29.98,SW,223,5.0,7.0,88,0.00,,,0.00,weatherlink.com 1.10,2013-06-13 10:46:00,
2013-06-13 06:01:00,74.7,71.0,29.98,SW,225,5.0,9.0,88,0.00,,,0.00,weatherlink.com 1.10,2013-06-13 11:01:00,
2013-06-13 06:16:00,74.4,71.0,29.99,SW,222,3.0,6.0,88,0.00,,,0.00,weatherlink.com 1.10,2013-06-13 11:16:00,
2013-06-13 06:31:00,74.4,71.0,29.99,SW,230,3.0,8.0,88,0.00,,,0.00,weatherlink.com 1.10,2013-06-13 11:31:00,
2013-06-13 06:46:00,74.8,71.0,30.00,SW,223,2.0,6.0,88,0.00,,,0.00,weatherlink.com 1.10,2013-06-13 11:46:00,
2013-06-13 07:01:00,75.2,71.0,30.00,SW,227,2.0,7.0,87,0.00,,,0.00,weatherlink.com 1.10,2013-06-13 12:01:00,
2013-06-13 07:16:00,75.7,72.0,30.01,SW,225,3.0,8.0,87,0.00,,,0.00,weatherlink.com 1.10,2013-06-13 12:16:00,
2013-06-13 07:31:00,76.4,72.0,30.01,SW,229,4.0,10.0,86,0.00,,,0.00,weatherlink.com 1.10,2013-06-13 12:31:00,
2013-06-13 07:46:00,77.2,72.0,30.01,SW,223,6.0,10.0,85,0.00,,,0.00,weatherlink.com 1.10,2013-06-13 12:46:00,
2013-06-13 08:01:00,78.2,73.0,30.02,WSW,248,3.0,8.0,83,0.00,,,0.00,weatherlink.com 1.10,2013-06-13 13:01:00,
2013-06-13 08:17:00,79.3,73.0,30.02,SW,225,12.0,12.0,81,0.00,,,0.00,weatherlink.com 1.10,2013-06-13 13:17:00,
2013-06-13 08:32:00,80.2,73.0,30.02,SW,228,4.0,12.0,79,0.00,,,0.00,weatherlink.com 1.10,2013-06-13 13:32:00,
2013-06-13 08:47:00,81.2,74.0,30.02,WSW,242,7.0,11.0,78,0.00,,,0.00,weatherlink.com 1.10,2013-06-13 13:47:00,
2013-06-13 09:02:00,82.4,74.0,30.03,WSW,244,6.0,11.0,75,0.00,,,0.00,weatherlink.com 1.10,2013-06-13 14:02:00,
2013-06-13 09:17:00,83.2,72.0,30.03,West,261,11.0,15.0,70,0.00,,,0.00,weatherlink.com 1.10,2013-06-13 14:17:00,
2013-06-13 09:32:00,84.1,72.0,30.03,SW,232,11.0,16.0,66,0.00,,,0.00,weatherlink.com 1.10,2013-06-13 14:32:00,
2013-06-13 09:47:00,84.7,72.0,30.03,WSW,246,12.0,17.0,65,0.00,,,0.00,weatherlink.com 1.10,2013-06-13 14:47:00,
2013-06-13 10:02:00,85.4,71.0,30.03,WSW,244,13.0,13.0,63,0.00,,,0.00,weatherlink.com 1.10,2013-06-13 15:02:00,
2013-06-13 10:17:00,86.1,73.0,30.03,SW,236,14.0,14.0,64,0.00,,,0.00,weatherlink.com 1.10,2013-06-13 15:17:00,
2013-06-13 10:32:00,86.4,72.0,30.03,SW,236,10.0,15.0,62,0.00,,,0.00,weatherlink.com 1.10,2013-06-13 15:32:00,
2013-06-13 10:47:00,87.2,72.0,30.02,WSW,240,9.0,12.0,60,0.00,,,0.00,weatherlink.com 1.10,2013-06-13 15:47:00,
2013-06-13 11:02:00,87.6,72.0,30.02,SW,228,7.0,12.0,60,0.00,,,0.00,weatherlink.com 1.10,2013-06-13 16:02:00,
2013-06-13 11:17:00,87.9,72.0,30.02,SW,235,7.0,15.0,60,0.00,,,0.00,weatherlink.com 1.10,2013-06-13 16:17:00,
2013-06-13 11:32:00,87.9,72.0,30.02,SW,233,9.0,13.0,60,0.00,,,0.00,weatherlink.com 1.10,2013-06-13 16:32:00,
2013-06-13 11:47:00,88.7,73.0,30.02,West,279,5.0,12.0,59,0.00,,,0.00,weatherlink.com 1.10,2013-06-13 16:47:00,
2013-06-13 12:02:00,89.4,73.0,30.02,West,262,8.0,14.0,58,0.00,,,0.00,weatherlink.com 1.10,2013-06-13 17:02:00,
2013-06-13 12:17:00,89.7,71.0,30.01,WSW,242,4.0,11.0,55,0.00,,,0.00,weatherlink.com 1.10,2013-06-13 17:17:00,
2013-06-13 12:32:00,90.6,73.0,30.01,WNW,298,6.0,10.0,56,0.00,,,0.00,weatherlink.com 1.10,2013-06-13 17:32:00,
2013-06-13 12:47:00,90.7,72.0,30.00,SW,233,1.0,12.0,55,0.00,,,0.00,weatherlink.com 1.10,2013-06-13 17:47:00,
2013-06-13 13:02:00,91.1,72.0,30.00,WNW,282,5.0,9.0,53,0.00,,,0.00,weatherlink.com 1.10,2013-06-13 18:02:00,
2013-06-13 13:17:00,91.4,71.0,30.00,WSW,237,3.0,10.0,51,0.00,,,0.00,weatherlink.com 1.10,2013-06-13 18:17:00,
2013-06-13 13:32:00,91.7,72.0,30.00,West,279,2.0,10.0,53,0.00,,,0.00,weatherlink.com 1.10,2013-06-13 18:32:00,
2013-06-13 13:47:00,92.0,72.0,29.99,WSW,257,6.0,10.0,52,0.00,,,0.00,weatherlink.com 1.10,2013-06-13 18:47:00,
2013-06-13 14:02:00,92.4,71.0,29.98,SSW,210,4.0,8.0,50,0.00,,,0.00,weatherlink.com 1.10,2013-06-13 19:02:00,
2013-06-13 14:17:00,92.6,71.0,29.98,West,273,2.0,8.0,49,0.00,,,0.00,weatherlink.com 1.10,2013-06-13 19:17:00,
2013-06-13 14:32:00,92.8,73.0,29.97,WSW,246,7.0,9.0,53,0.00,,,0.00,weatherlink.com 1.10,2013-06-13 19:32:00,
2013-06-13 14:47:00,93.5,70.0,29.97,WNW,288,1.0,7.0,46,0.00,,,0.00,weatherlink.com 1.10,2013-06-13 19:47:00,
2013-06-13 15:02:00,94.0,72.0,29.96,West,278,4.0,5.0,49,0.00,,,0.00,weatherlink.com 1.10,2013-06-13 20:02:00,
2013-06-13 15:18:00,93.6,72.0,29.95,SW,236,0.0,10.0,50,0.00,,,0.00,weatherlink.com 1.10,2013-06-13 20:18:00,
2013-06-13 15:33:00,94.5,71.0,29.95,NNW,344,1.0,4.0,47,0.00,,,0.00,weatherlink.com 1.10,2013-06-13 20:33:00,
2013-06-13 15:48:00,94.1,71.0,29.94,WNW,302,0.0,7.0,47,0.00,,,0.00,weatherlink.com 1.10,2013-06-13 20:48:00,
2013-06-13 16:03:00,94.7,74.0,29.94,WNW,285,3.0,6.0,51,0.00,,,0.00,weatherlink.com 1.10,2013-06-13 21:03:00,
2013-06-13 16:18:00,94.9,73.0,29.93,NNE,26,0.0,4.0,49,0.00,,,0.00,weatherlink.com 1.10,2013-06-13 21:18:00,
2013-06-13 16:33:00,95.5,73.0,29.92,West,276,3.0,4.0,48,0.00,,,0.00,weatherlink.com 1.10,2013-06-13 21:33:00,
2013-06-13 16:48:00,95.6,72.0,29.92,West,263,0.0,3.0,47,0.00,,,0.00,weatherlink.com 1.10,2013-06-13 21:48:00,
2013-06-13 17:03:00,95.6,72.0,29.91,NNW,340,0.0,4.0,46,0.00,,,0.00,weatherlink.com 1.10,2013-06-13 22:03:00,
2013-06-13 17:18:00,95.5,70.0,29.91,West,280,0.0,4.0,44,0.00,,,0.00,weatherlink.com 1.10,2013-06-13 22:18:00,
2013-06-13 17:33:00,95.9,72.0,29.90,SSE,155,2.0,3.0,46,0.00,,,0.00,weatherlink.com 1.10,2013-06-13 22:33:00,
2013-06-13 17:48:00,95.7,74.0,29.90,South,182,0.0,3.0,50,0.00,,,0.00,weatherlink.com 1.10,2013-06-13 22:48:00,
2013-06-13 18:18:00,94.2,72.0,29.89,ESE,103,1.0,3.0,48,0.00,,,0.00,weatherlink.com 1.10,2013-06-13 23:18:00,
2013-06-13 18:33:00,94.3,73.0,29.89,ESE,103,0.0,2.0,50,0.00,,,0.00,weatherlink.com 1.10,2013-06-13 23:33:00,
2013-06-13 18:48:00,94.1,73.0,29.89,West,275,0.0,1.0,51,0.00,,,0.00,weatherlink.com 1.10,2013-06-13 23:48:00,
2013-06-13 19:03:00,94.4,75.0,29.88,NE,45,0.0,1.0,53,0.00,,,0.00,weatherlink.com 1.10,2013-06-14 00:03:00,
2013-06-13 19:18:00,94.1,79.0,29.88,ENE,61,0.0,0.0,62,0.00,,,0.00,weatherlink.com 1.10,2013-06-14 00:18:00,
2013-06-13 19:33:00,92.1,77.0,29.88,East,81,0.0,0.0,62,0.00,,,0.00,weatherlink.com 1.10,2013-06-14 00:33:00,
2013-06-13 19:48:00,92.0,78.0,29.88,East,81,0.0,0.0,63,0.00,,,0.00,weatherlink.com 1.10,2013-06-14 00:48:00,
2013-06-13 20:03:00,89.9,78.0,29.89,East,81,0.0,0.0,67,0.00,,,0.00,weatherlink.com 1.10,2013-06-14 01:03:00,
2013-06-13 20:18:00,87.6,77.0,29.89,East,81,0.0,0.0,71,0.00,,,0.00,weatherlink.com 1.10,2013-06-14 01:18:00,
2013-06-13 20:33:00,85.6,77.0,29.89,East,81,0.0,0.0,76,0.00,,,0.00,weatherlink.com 1.10,2013-06-14 01:33:00,
2013-06-13 20:48:00,83.2,76.0,29.89,East,81,0.0,0.0,80,0.00,,,0.00,weatherlink.com 1.10,2013-06-14 01:48:00,
2013-06-13 21:03:00,81.7,76.0,29.90,East,81,0.0,0.0,83,0.00,,,0.00,weatherlink.com 1.10,2013-06-14 02:03:00,
2013-06-13 21:18:00,80.7,76.0,29.90,East,81,0.0,0.0,86,0.00,,,0.00,weatherlink.com 1.10,2013-06-14 02:18:00,
2013-06-13 21:33:00,79.5,75.0,29.91,East,81,0.0,0.0,87,0.00,,,0.00,weatherlink.com 1.10,2013-06-14 02:33:00,
2013-06-13 21:48:00,78.7,75.0,29.92,East,81,0.0,0.0,88,0.00,,,0.00,weatherlink.com 1.10,2013-06-14 02:48:00,
2013-06-13 22:03:00,78.2,75.0,29.92,East,81,0.0,0.0,89,0.00,,,0.00,weatherlink.com 1.10,2013-06-14 03:03:00,
2013-06-13 22:18:00,77.7,75.0,29.93,East,81,0.0,0.0,91,0.00,,,0.00,weatherlink.com 1.10,2013-06-14 03:18:00,
2013-06-13 22:33:00,77.1,74.0,29.93,East,81,0.0,0.0,90,0.00,,,0.00,weatherlink.com 1.10,2013-06-14 03:33:00,
2013-06-13 22:48:00,76.8,74.0,29.94,East,81,0.0,0.0,92,0.00,,,0.00,weatherlink.com 1.10,2013-06-14 03:48:00,
2013-06-13 23:03:00,76.2,74.0,29.94,East,81,0.0,0.0,93,0.00,,,0.00,weatherlink.com 1.10,2013-06-14 04:03:00,
2013-06-13 23:18:00,75.8,74.0,29.94,East,81,0.0,0.0,93,0.00,,,0.00,weatherlink.com 1.10,2013-06-14 04:18:00,
2013-06-13 23:33:00,75.5,73.0,29.94,East,81,0.0,0.0,93,0.00,,,0.00,weatherlink.com 1.10,2013-06-14 04:33:00,
2013-06-13 23:48:00,75.4,74.0,29.94,East,81,0.0,0.0,94,0.00,,,0.00,weatherlink.com 1.10,2013-06-14 04:48:00,